Time,TemperatureF,DewpointF,PressureIn,WindDirection,WindDirectionDegrees,WindSpeedMPH,WindSpeedGustMPH,Humidity,HourlyPrecipIn,Conditions,Clouds,dailyrainin,SoftwareType,DateUTC
2013-06-18 00:34:00,65.0,-99.9,29.90,SW,225,-999.0,-999.0,-999,0.00,,,-99.99,,2013-06-18 04:34:00,
2013-06-18 00:43:00,65.0,-99.9,29.90,SW,225,-999.0,-999.0,-999,0.00,,,-99.99,,2013-06-18 04:43:00,
2013-06-18 00:52:00,64.0,-99.9,29.89,SW,225,-999.0,-999.0,-999,0.00,,,-99.99,,2013-06-18 04:52:00,
2013-06-18 01:43:00,64.0,-99.9,29.89,SW,225,-999.0,-999.0,-999,0.00,,,-99.99,,2013-06-18 05:43:00,
2013-06-18 01:52:00,64.0,-99.9,29.88,West,272,-999.0,-999.0,-999,0.00,,,-99.99,,2013-06-18 05:52:00,
2013-06-18 02:33:00,64.0,-99.9,29.88,West,272,-999.0,-999.0,-999,0.00,,,-99.99,,2013-06-18 06:33:00,
2013-06-18 02:43:00,64.0,-99.9,29.88,West,272,-999.0,-999.0,-999,0.00,,,-99.99,,2013-06-18 06:43:00,
2013-06-18 02:52:00,64.0,-99.9,29.87,West,272,-999.0,-999.0,-999,0.00,,,-99.99,,2013-06-18 06:52:00,
2013-06-18 03:43:00,64.0,-99.9,29.87,West,272,-999.0,-999.0,-999,0.00,,,-99.99,,2013-06-18 07:43:00,
2013-06-18 03:52:00,63.0,-99.9,29.85,West,272,-999.0,-999.0,-999,0.00,,,-99.99,,2013-06-18 07:52:00,
2013-06-18 04:33:00,63.0,-99.9,29.85,West,272,-999.0,-999.0,-999,0.00,,,-99.99,,2013-06-18 08:33:00,
2013-06-18 04:43:00,63.0,-99.9,29.85,West,272,-999.0,-999.0,-999,0.00,,,-99.99,,2013-06-18 08:43:00,
2013-06-18 04:52:00,60.0,-99.9,29.86,West,272,-999.0,-999.0,-999,0.00,,,-99.99,,2013-06-18 08:52:00,
2013-06-18 05:34:00,60.0,-99.9,29.86,West,272,-999.0,-999.0,-999,0.00,,,-99.99,,2013-06-18 09:34:00,
2013-06-18 05:43:00,60.0,-99.9,29.86,West,272,-999.0,-999.0,-999,0.00,,,-99.99,,2013-06-18 09:43:00,
2013-06-18 05:52:00,60.0,-99.9,29.87,West,272,-999.0,-999.0,-999,0.00,,,-99.99,,2013-06-18 09:52:00,
2013-06-18 06:33:00,60.0,-99.9,29.87,West,272,-999.0,-999.0,-999,0.00,,,-99.99,,2013-06-18 10:33:00,
2013-06-18 06:43:00,60.0,-99.9,29.87,West,272,-999.0,-999.0,-999,0.00,,,-99.99,,2013-06-18 10:43:00,
2013-06-18 06:52:00,64.0,-99.9,29.88,West,272,-999.0,-999.0,-999,0.00,,,-99.99,,2013-06-18 10:52:00,
2013-06-18 07:43:00,64.0,-99.9,29.88,West,272,-999.0,-999.0,-999,0.00,,,-99.99,,2013-06-18 11:43:00,
2013-06-18 07:52:00,69.0,-99.9,29.88,West,272,-999.0,-999.0,-999,0.00,,,-99.99,,2013-06-18 11:52:00,
2013-06-18 08:33:00,69.0,-99.9,29.88,West,272,-999.0,-999.0,-999,0.00,,,-99.99,,2013-06-18 12:33:00,
2013-06-18 08:43:00,69.0,-99.9,29.88,West,272,-999.0,-999.0,-999,0.00,,,-99.99,,2013-06-18 12:43:00,
2013-06-18 08:52:00,73.0,-99.9,29.88,West,272,-999.0,-999.0,-999,0.00,,,-99.99,,2013-06-18 12:52:00,
2013-06-18 09:43:00,73.0,-99.9,29.88,West,272,-999.0,-999.0,-999,0.00,,,-99.99,,2013-06-18 13:43:00,
2013-06-18 09:52:00,77.0,-99.9,29.87,SE,137,5.0,6.0,-999,0.00,,,-99.99,,2013-06-18 13:52:00,
2013-06-18 10:33:00,77.0,-99.9,29.87,SE,137,5.0,6.0,-999,0.00,,,-99.99,,2013-06-18 14:33:00,
2013-06-18 10:43:00,77.0,-99.9,29.87,SE,137,5.0,6.0,-999,0.00,,,-99.99,,2013-06-18 14:43:00,
2013-06-18 10:52:00,78.0,-99.9,29.86,ESE,117,-999.0,6.0,-999,0.00,,,-99.99,,2013-06-18 14:52:00,
2013-06-18 11:33:00,78.0,-99.9,29.86,ESE,117,-999.0,6.0,-999,0.00,,,-99.99,,2013-06-18 15:33:00,
2013-06-18 11:43:00,78.0,-99.9,29.86,ESE,117,-999.0,6.0,-999,0.00,,,-99.99,,2013-06-18 15:43:00,
2013-06-18 11:52:00,76.0,-99.9,29.86,SSW,202,2.0,7.0,-999,0.00,,,-99.99,,2013-06-18 15:52:00,
2013-06-18 12:43:00,76.0,-99.9,29.86,SSW,202,2.0,7.0,-999,0.00,,,-99.99,,2013-06-18 16:43:00,
2013-06-18 12:52:00,76.0,-99.9,29.82,SW,216,-999.0,6.0,-999,0.00,,,-99.99,,2013-06-18 16:52:00,
2013-06-18 13:34:00,76.0,-99.9,29.82,SW,216,-999.0,6.0,-999,0.00,,,-99.99,,2013-06-18 17:34:00,
2013-06-18 13:43:00,76.0,-99.9,29.82,SW,216,-999.0,6.0,-999,0.00,,,-99.99,,2013-06-18 17:43:00,
2013-06-18 13:52:00,73.0,-99.9,29.84,SSE,166,-999.0,-999.0,-999,0.00,,,-99.99,,2013-06-18 17:52:00,
2013-06-18 14:33:00,73.0,-99.9,29.84,SSE,166,-999.0,-999.0,-999,0.00,,,-99.99,,2013-06-18 18:33:00,
2013-06-18 14:43:00,73.0,-99.9,29.84,SSE,166,-999.0,-999.0,-999,0.00,,,-99.99,,2013-06-18 18:43:00,
2013-06-18 14:52:00,72.0,-99.9,29.80,South,188,-999.0,6.0,-999,0.02,,,-99.99,,2013-06-18 18:52:00,
2013-06-18 15:43:00,72.0,-99.9,29.80,South,188,-999.0,6.0,-999,0.02,,,-99.99,,2013-06-18 19:43:00,
2013-06-18 15:52:00,71.0,-99.9,29.80,SSW,199,-999.0,-999.0,-999,0.00,,,-99.99,,2013-06-18 19:52:00,
2013-06-18 16:43:00,71.0,-99.9,29.80,SSW,199,-999.0,-999.0,-999,0.00,,,-99.99,,2013-06-18 20:43:00,
2013-06-18 16:52:00,71.0,-99.9,29.81,SE,129,-999.0,-999.0,-999,0.03,,,-99.99,,2013-06-18 20:52:00,
2013-06-18 17:43:00,71.0,-99.9,29.81,SE,129,-999.0,-999.0,-999,0.03,,,-99.99,,2013-06-18 21:43:00,
2013-06-18 17:52:00,68.0,-99.9,29.80,SSW,195,-999.0,-999.0,-999,0.04,,,-99.99,,2013-06-18 21:52:00,
2013-06-18 18:34:00,68.0,-99.9,29.80,SSW,195,-999.0,-999.0,-999,0.04,,,-99.99,,2013-06-18 22:34:00,
2013-06-18 18:43:00,68.0,-99.9,29.80,SSW,195,-999.0,-999.0,-999,0.04,,,-99.99,,2013-06-18 22:43:00,
2013-06-18 18:52:00,67.0,-99.9,29.84,East,99,5.0,6.0,-999,0.03,,,-99.99,,2013-06-18 22:52:00,
2013-06-18 19:39:00,67.0,-99.9,29.84,East,99,5.0,6.0,-999,0.03,,,-99.99,,2013-06-18 23:39:00,
2013-06-18 19:49:00,67.0,-99.9,29.84,East,99,5.0,6.0,-999,0.03,,,-99.99,,2013-06-18 23:49:00,
2013-06-18 19:52:00,65.0,-99.9,29.83,SSE,162,-999.0,-999.0,-999,0.13,,,-99.99,,2013-06-18 23:52:00,
2013-06-18 20:33:00,65.0,-99.9,29.83,SSE,162,-999.0,-999.0,-999,0.13,,,-99.99,,2013-06-19 00:33:00,
2013-06-18 20:43:00,65.0,-99.9,29.83,SSE,162,-999.0,-999.0,-999,0.13,,,-99.99,,2013-06-19 00:43:00,
2013-06-18 20:53:00,63.0,-99.9,29.83,East,86,-999.0,-999.0,-999,0.01,,,-99.99,,2013-06-19 00:53:00,
2013-06-18 21:32:00,63.0,-99.9,29.83,East,86,-999.0,-999.0,-999,0.01,,,-99.99,,2013-06-19 01:32:00,
2013-06-18 21:43:00,63.0,-99.9,29.83,East,86,-999.0,-999.0,-999,0.01,,,-99.99,,2013-06-19 01:43:00,
2013-06-18 22:52:00,60.0,-99.9,29.86,NNE,17,-999.0,5.0,-999,0.00,,,-99.99,,2013-06-19 02:52:00,
2013-06-18 23:33:00,60.0,-99.9,29.86,NNE,17,-999.0,5.0,-999,0.00,,,-99.99,,2013-06-19 03:33:00,
2013-06-18 23:43:00,60.0,-99.9,29.86,NNE,17,-999.0,5.0,-999,0.00,,,-99.99,,2013-06-19 03:43:00,
2013-06-18 23:52:00,60.0,-99.9,29.88,NE,47,3.0,6.0,-999,0.00,,,-99.99,,2013-06-19 03:52:00,